SAS911 EKCH-KORD

Flight info

Callsign SAS911
Flight time 8h 56m
Altitude 36000
Route ODN DCT PETIL DCT SURAT DCT ZOFAT/N0458F380 DCT MOLAK DCT NEBIN/M080F390 NATB BUDAR/N0459F400 N448A ANATI DCT KAPUX DCT HOCKE DCT FNT WYNDE3
Aircraft A343/H-SDE2E3FGHIJ4J5M1RWXY/LB1D1

Departure

Time 2026-04-30 13:46
Airport Copenhagen Kastrup Airport (EKCH)

Arrival

Time 2026-04-30 22:42
Airport Chicago O'Hare International Airport (KORD)
Time Latitude Longitude Altitude Speed Heading
2026-04-30 13:11 55.62505 12.65068 22 ft 0 kts 268°
2026-04-30 13:34 55.62505 12.65086 20 ft 3 kts 268°
2026-04-30 13:35 55.62506 12.65122 22 ft 3 kts 268°
2026-04-30 13:35 55.62513 12.65183 24 ft 3 kts 215°
2026-04-30 13:36 55.62538 12.65197 24 ft 0 kts 178°
2026-04-30 13:36 55.62525 12.65198 26 ft 2 kts 179°
2026-04-30 13:36 55.62518 12.65198 26 ft 0 kts 179°
2026-04-30 13:38 55.62513 12.65198 20 ft 1 kts 179°
2026-04-30 13:39 55.62437 12.65202 20 ft 10 kts 178°
2026-04-30 13:39 55.62292 12.65203 20 ft 10 kts 182°
2026-04-30 13:40 55.62219 12.65192 20 ft 10 kts 190°
2026-04-30 13:40 55.62166 12.65166 21 ft 2 kts 199°
2026-04-30 13:40 55.62147 12.65152 21 ft 4 kts 204°
2026-04-30 13:40 55.62102 12.65101 21 ft 13 kts 218°
2026-04-30 13:41 55.62016 12.64962 22 ft 20 kts 220°
2026-04-30 13:41 55.61895 12.64820 20 ft 21 kts 211°
2026-04-30 13:41 55.61768 12.64677 21 ft 22 kts 216°
2026-04-30 13:41 55.61641 12.64529 21 ft 22 kts 213°
2026-04-30 13:42 55.61510 12.64379 21 ft 23 kts 213°
2026-04-30 13:42 55.61376 12.64225 22 ft 23 kts 213°
2026-04-30 13:42 55.61098 12.63905 22 ft 24 kts 213°
2026-04-30 13:43 55.60955 12.63739 22 ft 25 kts 213°
2026-04-30 13:43 55.60811 12.63574 20 ft 25 kts 213°
2026-04-30 13:43 55.60672 12.63412 22 ft 17 kts 215°
2026-04-30 13:43 55.60580 12.63279 20 ft 17 kts 220°
2026-04-30 13:44 55.60491 12.63146 20 ft 15 kts 218°
2026-04-30 13:44 55.60405 12.63151 21 ft 13 kts 140°
2026-04-30 13:44 55.60347 12.63259 23 ft 5 kts 132°
2026-04-30 13:44 55.60334 12.63294 27 ft 1 kts 108°
2026-04-30 13:45 55.60389 12.63426 24 ft 11 kts 41°
2026-04-30 13:45 55.60545 12.63667 21 ft 60 kts 41°
2026-04-30 13:45 55.61018 12.64400 20 ft 120 kts 41°
2026-04-30 13:46 55.61769 12.65566 58 ft 163 kts 39°
2026-04-30 13:46 55.62639 12.66931 670 ft 167 kts 37°
2026-04-30 13:46 55.63603 12.68090 1340 ft 172 kts 14°
2026-04-30 13:46 55.64855 12.68253 1714 ft 193 kts 349°
2026-04-30 13:47 55.66126 12.67225 2066 ft 218 kts 317°
2026-04-30 13:47 55.66832 12.64772 2666 ft 237 kts 277°
2026-04-30 13:47 55.66527 12.61862 3596 ft 248 kts 252°
2026-04-30 13:47 55.65741 12.59064 4430 ft 260 kts 242°
2026-04-30 13:48 55.64741 12.56331 5329 ft 267 kts 238°
2026-04-30 13:48 55.63658 12.53601 6184 ft 274 kts 237°
2026-04-30 13:48 55.62863 12.50586 6994 ft 277 kts 259°
2026-04-30 13:48 55.62521 12.47201 7808 ft 281 kts 267°
2026-04-30 13:49 55.62393 12.43732 8639 ft 285 kts 272°
2026-04-30 13:49 55.62367 12.40205 9466 ft 289 kts 273°
2026-04-30 13:49 55.62370 12.36605 10260 ft 295 kts 273°
2026-04-30 13:49 55.62367 12.32911 10849 ft 307 kts 272°
2026-04-30 13:50 55.62342 12.29001 11179 ft 327 kts 272°
2026-04-30 13:50 55.62216 12.20548 12018 ft 356 kts 271°
2026-04-30 13:50 55.62126 12.16122 12608 ft 364 kts 270°
2026-04-30 13:51 55.62027 12.11608 13244 ft 370 kts 270°
2026-04-30 13:51 55.61925 12.07019 13896 ft 376 kts 270°
2026-04-30 13:51 55.61821 12.02356 14527 ft 382 kts 271°
2026-04-30 13:51 55.61717 11.97684 15143 ft 386 kts 271°
2026-04-30 13:52 55.61608 11.92858 15820 ft 389 kts 271°
2026-04-30 13:52 55.61499 11.88057 16496 ft 392 kts 271°
2026-04-30 13:52 55.61300 11.79380 17648 ft 398 kts 270°
2026-04-30 13:53 55.61186 11.74535 18312 ft 401 kts 270°
2026-04-30 13:53 55.61067 11.69516 18950 ft 405 kts 270°
2026-04-30 13:53 55.60945 11.64524 19530 ft 407 kts 270°
2026-04-30 13:53 55.60821 11.59519 20147 ft 409 kts 270°
2026-04-30 13:54 55.60694 11.54474 20740 ft 411 kts 270°
2026-04-30 13:54 55.60567 11.49490 21334 ft 412 kts 270°
2026-04-30 13:54 55.60435 11.44412 21913 ft 414 kts 270°
2026-04-30 13:54 55.60301 11.39311 22485 ft 416 kts 270°
2026-04-30 13:55 55.60163 11.34185 23040 ft 419 kts 270°
2026-04-30 13:55 55.60023 11.29026 23590 ft 421 kts 270°
2026-04-30 13:55 55.59880 11.23851 24119 ft 423 kts 270°
2026-04-30 13:55 55.59734 11.18647 24570 ft 424 kts 270°
2026-04-30 13:56 55.59586 11.13445 25087 ft 424 kts 270°
2026-04-30 13:56 55.59435 11.08237 25491 ft 426 kts 270°
2026-04-30 13:56 55.59281 11.02987 25896 ft 428 kts 270°
2026-04-30 13:56 55.59124 10.97716 26292 ft 431 kts 270°
2026-04-30 13:57 55.58964 10.92410 26692 ft 433 kts 270°
2026-04-30 13:57 55.58801 10.87095 27073 ft 435 kts 270°
2026-04-30 13:57 55.58635 10.81736 27459 ft 437 kts 270°
2026-04-30 13:57 55.58465 10.76354 27841 ft 439 kts 269°
2026-04-30 13:58 55.58293 10.70962 28209 ft 441 kts 270°
2026-04-30 13:58 55.58584 10.60160 28929 ft 441 kts 279°
2026-04-30 13:58 55.58984 10.54788 29280 ft 442 kts 281°
2026-04-30 13:59 55.59432 10.49395 29612 ft 444 kts 281°
2026-04-30 13:59 55.59903 10.43982 29949 ft 446 kts 282°
2026-04-30 13:59 55.60373 10.38623 30266 ft 448 kts 282°
2026-04-30 13:59 55.60849 10.33162 30574 ft 450 kts 281°
2026-04-30 14:00 55.61318 10.27692 30843 ft 451 kts 281°
2026-04-30 14:00 55.62245 10.16657 31364 ft 455 kts 281°
2026-04-30 14:00 55.62705 10.11103 31624 ft 456 kts 281°
2026-04-30 14:01 55.63161 10.05539 31894 ft 457 kts 281°
2026-04-30 14:01 55.63615 9.99973 32194 ft 457 kts 281°
2026-04-30 14:01 55.64067 9.94401 32479 ft 458 kts 281°
2026-04-30 14:01 55.64516 9.88824 32834 ft 457 kts 281°
2026-04-30 14:02 55.64961 9.83276 33182 ft 455 kts 281°
2026-04-30 14:02 55.65404 9.77723 33524 ft 454 kts 280°
2026-04-30 14:02 55.65843 9.72181 33860 ft 453 kts 280°
2026-04-30 14:02 55.66278 9.66665 34193 ft 452 kts 280°
2026-04-30 14:03 55.66710 9.61161 34531 ft 451 kts 280°
2026-04-30 14:03 55.67134 9.55718 34793 ft 450 kts 280°
2026-04-30 14:03 55.67560 9.50225 35043 ft 450 kts 280°
2026-04-30 14:03 55.67982 9.44744 35308 ft 449 kts 280°
2026-04-30 14:04 55.68401 9.39267 35564 ft 449 kts 280°
2026-04-30 14:04 55.68818 9.33782 35837 ft 448 kts 279°
2026-04-30 14:04 55.69232 9.28318 36069 ft 448 kts 279°
2026-04-30 14:04 55.69642 9.22855 36299 ft 447 kts 279°
2026-04-30 14:05 55.70052 9.17386 36464 ft 448 kts 279°
2026-04-30 14:05 55.70455 9.11946 36479 ft 440 kts 279°
2026-04-30 14:05 55.71232 9.01351 36481 ft 431 kts 279°
2026-04-30 14:06 55.72379 8.85551 36482 ft 430 kts 279°
2026-04-30 14:07 55.73504 8.69750 36486 ft 430 kts 279°
2026-04-30 14:08 55.74608 8.53944 36499 ft 430 kts 278°
2026-04-30 14:08 55.75607 8.38097 36496 ft 431 kts 276°
2026-04-30 14:09 55.76255 8.27525 36503 ft 431 kts 276°
2026-04-30 14:10 55.77297 8.11492 36503 ft 442 kts 277°
2026-04-30 14:10 55.78011 8.00526 36502 ft 451 kts 276°
2026-04-30 14:11 55.78721 7.89425 36584 ft 457 kts 276°
2026-04-30 14:11 55.79074 7.83844 36990 ft 451 kts 276°
2026-04-30 14:11 55.79422 7.78339 37301 ft 448 kts 276°
2026-04-30 14:11 55.79768 7.72841 37513 ft 447 kts 276°
2026-04-30 14:12 55.80111 7.67367 37736 ft 446 kts 276°
2026-04-30 14:12 55.80451 7.61893 37932 ft 445 kts 276°
2026-04-30 14:12 55.80788 7.56434 38128 ft 444 kts 276°
2026-04-30 14:12 55.81010 7.52807 38239 ft 444 kts 276°
2026-04-30 14:13 55.81453 7.45520 38466 ft 443 kts 276°
2026-04-30 14:13 55.81781 7.40072 38621 ft 443 kts 276°
2026-04-30 14:13 55.82106 7.34637 38779 ft 442 kts 276°
2026-04-30 14:13 55.82423 7.29272 38936 ft 442 kts 275°
2026-04-30 14:14 55.82742 7.23847 39106 ft 441 kts 275°
2026-04-30 14:14 55.83062 7.18351 39236 ft 441 kts 275°
2026-04-30 14:14 55.83372 7.12994 39335 ft 441 kts 275°
2026-04-30 14:15 55.83993 7.02125 39489 ft 442 kts 275°
2026-04-30 14:15 55.84605 6.91209 39495 ft 444 kts 275°
2026-04-30 14:16 55.85207 6.80302 39495 ft 442 kts 275°
2026-04-30 14:16 55.85799 6.69414 39495 ft 442 kts 275°
2026-04-30 14:17 55.86381 6.58522 39495 ft 442 kts 274°
2026-04-30 14:17 55.86953 6.47631 39492 ft 442 kts 274°
2026-04-30 14:18 55.87515 6.36732 39492 ft 442 kts 274°
2026-04-30 14:18 55.88340 6.20388 39484 ft 442 kts 274°
2026-04-30 14:19 55.89143 6.04038 39490 ft 442 kts 274°
2026-04-30 14:20 55.89667 5.93127 39490 ft 442 kts 274°
2026-04-30 14:20 55.90434 5.76762 39486 ft 442 kts 274°
2026-04-30 14:21 55.90934 5.65843 39487 ft 442 kts 273°
2026-04-30 14:22 55.91662 5.49525 39482 ft 442 kts 273°
2026-04-30 14:22 55.92373 5.33121 39482 ft 442 kts 273°
2026-04-30 14:23 55.93286 5.11232 39478 ft 442 kts 272°
2026-04-30 14:24 55.93674 4.94812 39471 ft 442 kts 268°
2026-04-30 14:25 55.93461 4.72899 39474 ft 442 kts 267°
2026-04-30 14:26 55.93246 4.56437 39474 ft 442 kts 267°
2026-04-30 14:27 55.93019 4.39988 39471 ft 442 kts 267°
2026-04-30 14:27 55.92858 4.29084 39466 ft 443 kts 266°
2026-04-30 14:28 55.92595 4.12629 39469 ft 443 kts 266°
2026-04-30 14:28 55.92408 4.01661 39463 ft 442 kts 266°
2026-04-30 14:29 55.92040 3.81576 39460 ft 443 kts 266°
2026-04-30 14:31 55.91443 3.52252 39461 ft 443 kts 265°
2026-04-30 14:31 55.91179 3.35775 39452 ft 444 kts 266°
2026-04-30 14:32 55.90984 3.19263 39451 ft 444 kts 266°
2026-04-30 14:33 55.90827 3.08256 39447 ft 444 kts 266°
2026-04-30 14:33 55.90564 2.91817 39443 ft 444 kts 265°
2026-04-30 14:34 55.90375 2.80815 39443 ft 444 kts 265°
2026-04-30 14:34 55.90177 2.69822 39439 ft 444 kts 265°
2026-04-30 14:35 55.89861 2.53318 39435 ft 444 kts 265°
2026-04-30 14:36 55.89638 2.42319 39430 ft 444 kts 265°
2026-04-30 14:36 55.89446 2.33171 39430 ft 444 kts 264°
2026-04-30 14:37 55.89206 2.22186 39432 ft 444 kts 264°
2026-04-30 14:37 55.88956 2.11214 39431 ft 443 kts 264°
2026-04-30 14:38 55.88697 2.00257 39427 ft 442 kts 264°
2026-04-30 14:38 55.88428 1.89304 39424 ft 442 kts 264°
2026-04-30 14:39 55.88149 1.78354 39417 ft 442 kts 264°
2026-04-30 14:39 55.87861 1.67408 39422 ft 442 kts 263°
2026-04-30 14:40 55.87412 1.51033 39414 ft 441 kts 263°
2026-04-30 14:40 55.87101 1.40137 39414 ft 441 kts 263°
2026-04-30 14:41 55.86782 1.29313 39406 ft 440 kts 263°
2026-04-30 14:41 55.86451 1.18420 39406 ft 440 kts 263°
2026-04-30 14:42 55.86112 1.07541 39405 ft 440 kts 263°
2026-04-30 14:42 55.85762 0.96643 39403 ft 441 kts 263°
2026-04-30 14:43 55.85403 0.85757 39395 ft 441 kts 263°
2026-04-30 14:43 55.85034 0.74874 39395 ft 441 kts 262°
2026-04-30 14:44 55.84655 0.63973 39389 ft 441 kts 262°
2026-04-30 14:44 55.84268 0.53096 39393 ft 440 kts 262°
2026-04-30 14:45 55.83870 0.42204 39381 ft 441 kts 262°
2026-04-30 14:45 55.83462 0.31320 39384 ft 441 kts 262°
2026-04-30 14:46 55.83045 0.20435 39373 ft 441 kts 262°
2026-04-30 14:46 55.82618 0.09558 39373 ft 441 kts 262°
2026-04-30 14:47 55.82185 -0.01246 39377 ft 441 kts 262°
2026-04-30 14:47 55.81738 -0.12146 39366 ft 442 kts 262°
2026-04-30 14:48 55.81280 -0.23059 39363 ft 443 kts 262°
2026-04-30 14:48 55.80814 -0.33967 39363 ft 443 kts 262°
2026-04-30 14:49 55.80337 -0.44879 39363 ft 443 kts 261°
2026-04-30 14:49 55.79851 -0.55785 39357 ft 443 kts 261°
2026-04-30 14:50 55.79104 -0.72138 39349 ft 442 kts 261°
2026-04-30 14:51 55.78335 -0.88476 39349 ft 442 kts 261°
2026-04-30 14:52 55.77544 -1.04824 39336 ft 443 kts 261°
2026-04-30 14:52 55.76729 -1.21213 39328 ft 445 kts 261°
2026-04-30 14:53 55.75894 -1.37550 39322 ft 445 kts 261°
2026-04-30 14:54 55.74741 -1.59453 39317 ft 445 kts 260°
2026-04-30 14:55 55.73851 -1.75863 39315 ft 445 kts 260°
2026-04-30 14:56 55.72631 -1.97710 39309 ft 445 kts 260°
2026-04-30 14:57 55.71689 -2.14122 39296 ft 445 kts 260°
2026-04-30 14:58 55.70405 -2.35886 39285 ft 446 kts 259°
2026-04-30 14:58 55.69413 -2.52266 39277 ft 446 kts 259°
2026-04-30 15:00 55.67710 -2.79562 39262 ft 446 kts 258°
2026-04-30 15:01 55.66309 -3.01295 39255 ft 443 kts 258°
2026-04-30 15:01 55.65237 -3.17540 39247 ft 443 kts 258°
2026-04-30 15:02 55.64509 -3.28362 39248 ft 443 kts 258°
2026-04-30 15:03 55.62637 -3.55565 39234 ft 448 kts 258°
2026-04-30 15:04 55.60700 -3.82873 39215 ft 448 kts 257°
2026-04-30 15:06 55.58196 -4.10012 39204 ft 446 kts 250°
2026-04-30 15:07 55.54958 -4.31084 39200 ft 446 kts 249°
2026-04-30 15:08 55.51646 -4.52164 39212 ft 444 kts 250°
2026-04-30 15:09 55.47504 -4.78295 39186 ft 442 kts 249°
2026-04-30 15:10 55.44151 -4.99154 39184 ft 442 kts 249°
2026-04-30 15:11 55.39022 -5.30574 39184 ft 447 kts 249°
2026-04-30 15:13 55.34671 -5.56789 39184 ft 447 kts 249°
2026-04-30 15:14 55.28471 -5.93476 39181 ft 448 kts 248°
2026-04-30 15:17 55.20355 -6.40385 39158 ft 448 kts 248°
2026-04-30 15:19 55.12971 -6.82022 39149 ft 449 kts 247°
2026-04-30 17:39 51.99250 -36.12221 39446 ft 466 kts 259°
2026-04-30 17:42 51.93446 -36.64028 39446 ft 467 kts 258°
2026-04-30 17:43 51.90450 -36.89951 39447 ft 469 kts 258°
2026-04-30 17:44 51.86788 -37.20950 39445 ft 466 kts 257°
2026-04-30 17:47 51.81155 -37.67251 39445 ft 467 kts 257°
2026-04-30 17:48 51.76642 -38.03234 39450 ft 468 kts 257°
2026-04-30 17:50 51.71344 -38.44307 39447 ft 467 kts 256°
2026-04-30 17:52 51.67277 -38.75053 39442 ft 469 kts 256°
2026-04-30 17:54 51.61247 -39.19464 39445 ft 469 kts 255°
2026-04-30 17:56 51.55529 -39.60376 39442 ft 468 kts 255°
2026-04-30 17:58 51.51158 -39.90920 39441 ft 469 kts 254°
2026-04-30 18:00 51.47978 -40.32557 39442 ft 472 kts 262°
2026-04-30 18:01 51.46423 -40.58761 39440 ft 472 kts 262°
2026-04-30 18:02 51.44470 -40.90143 39440 ft 474 kts 262°
2026-04-30 18:04 51.42424 -41.21657 39435 ft 474 kts 262°
2026-04-30 18:06 51.39576 -41.63472 39442 ft 472 kts 261°
2026-04-30 18:08 51.36961 -42.00044 39444 ft 473 kts 261°
2026-04-30 18:10 51.33843 -42.41636 39443 ft 470 kts 261°
2026-04-30 18:11 51.30997 -42.77960 39448 ft 470 kts 260°
2026-04-30 18:13 51.28902 -43.03788 39451 ft 468 kts 260°
2026-04-30 18:14 51.26750 -43.29596 39448 ft 469 kts 260°
2026-04-30 18:15 51.24091 -43.60567 39456 ft 469 kts 259°
2026-04-30 18:16 51.22269 -43.81229 39448 ft 471 kts 259°
2026-04-30 18:17 51.21345 -43.91542 39450 ft 468 kts 259°
2026-04-30 18:18 51.19948 -44.06951 39456 ft 468 kts 259°
2026-04-30 18:18 51.19006 -44.17215 39459 ft 468 kts 259°
2026-04-30 18:19 51.18053 -44.27496 39455 ft 469 kts 259°
2026-04-30 18:19 51.17090 -44.37770 39455 ft 469 kts 259°
2026-04-30 18:20 51.16124 -44.47987 39454 ft 469 kts 259°
2026-04-30 18:20 51.15143 -44.58268 39456 ft 469 kts 258°
2026-04-30 18:21 51.14153 -44.68537 39451 ft 468 kts 258°
2026-04-30 18:21 51.13158 -44.78758 39456 ft 467 kts 258°
2026-04-30 18:22 51.12154 -44.88985 39453 ft 468 kts 258°
2026-04-30 18:22 51.10630 -45.04323 39454 ft 468 kts 258°
2026-04-30 18:23 51.09602 -45.14547 39458 ft 468 kts 258°
2026-04-30 18:23 51.08566 -45.24763 39458 ft 468 kts 258°
2026-04-30 18:24 51.06994 -45.40085 39455 ft 469 kts 258°
2026-04-30 18:25 51.05941 -45.50235 39454 ft 468 kts 257°
2026-04-30 18:25 51.04342 -45.65491 39453 ft 466 kts 257°
2026-04-30 18:26 51.02726 -45.80700 39460 ft 465 kts 257°
2026-04-30 18:27 51.01089 -45.95909 39454 ft 466 kts 257°
2026-04-30 18:28 50.99430 -46.11132 39454 ft 466 kts 257°
2026-04-30 18:28 50.97752 -46.26339 39454 ft 466 kts 257°
2026-04-30 18:29 50.95491 -46.46534 39454 ft 463 kts 257°
2026-04-30 18:30 50.93205 -46.66624 39454 ft 463 kts 256°
2026-04-30 18:31 50.91465 -46.81694 39454 ft 463 kts 256°
2026-04-30 18:32 50.89708 -46.96741 39455 ft 463 kts 256°
2026-04-30 18:33 50.87939 -47.11715 39454 ft 463 kts 256°
2026-04-30 18:33 50.86151 -47.26679 39454 ft 459 kts 256°
2026-04-30 18:34 50.84353 -47.41557 39452 ft 458 kts 256°
2026-04-30 18:35 50.83144 -47.51458 39453 ft 459 kts 256°
2026-04-30 18:35 50.81926 -47.61364 39452 ft 458 kts 256°
2026-04-30 18:36 50.80086 -47.76202 39452 ft 459 kts 256°
2026-04-30 18:37 50.78226 -47.91029 39449 ft 459 kts 255°
2026-04-30 18:37 50.76976 -48.00903 39449 ft 457 kts 255°
2026-04-30 18:38 50.75726 -48.10706 39450 ft 454 kts 255°
2026-04-30 18:38 50.74482 -48.20401 39449 ft 454 kts 255°
2026-04-30 18:39 50.73221 -48.30158 39446 ft 454 kts 255°
2026-04-30 18:39 50.71951 -48.39906 39446 ft 454 kts 255°
2026-04-30 18:40 50.70673 -48.49653 39445 ft 454 kts 255°
2026-04-30 18:40 50.69388 -48.59394 39442 ft 454 kts 255°
2026-04-30 18:41 50.68094 -48.69127 39443 ft 454 kts 255°
2026-04-30 18:41 50.66792 -48.78860 39441 ft 454 kts 255°
2026-04-30 18:42 50.65481 -48.88590 39441 ft 454 kts 255°
2026-04-30 18:42 50.63499 -49.03177 39440 ft 454 kts 254°
2026-04-30 18:45 50.56323 -49.54823 39438 ft 454 kts 254°
2026-04-30 18:46 50.54952 -49.64492 39436 ft 452 kts 254°
2026-04-30 18:46 50.53579 -49.74114 39436 ft 450 kts 254°
2026-04-30 18:47 50.52199 -49.83717 39431 ft 450 kts 253°
2026-04-30 18:47 50.50814 -49.93301 39430 ft 450 kts 253°
2026-04-30 18:48 50.49136 -50.02746 39427 ft 447 kts 247°
2026-04-30 18:48 50.47010 -50.11929 39428 ft 448 kts 246°
2026-04-30 18:49 50.44796 -50.21074 39426 ft 448 kts 245°
2026-04-30 18:49 50.42569 -50.30212 39429 ft 448 kts 245°
2026-04-30 18:50 50.40347 -50.39338 39422 ft 448 kts 245°
2026-04-30 18:50 50.38123 -50.48465 39424 ft 448 kts 245°
2026-04-30 18:51 50.35897 -50.57561 39423 ft 446 kts 245°
2026-04-30 18:51 50.33669 -50.66631 39422 ft 445 kts 245°
2026-04-30 18:52 50.31450 -50.75623 39422 ft 446 kts 245°
2026-04-30 18:52 50.29209 -50.84666 39417 ft 446 kts 245°
2026-04-30 18:53 50.26963 -50.93697 39417 ft 446 kts 245°
2026-04-30 18:53 50.24686 -51.02803 39422 ft 454 kts 245°
2026-04-30 18:54 50.22355 -51.12068 39413 ft 462 kts 245°
2026-04-30 18:54 50.19982 -51.21472 39411 ft 465 kts 245°
2026-04-30 18:55 50.17610 -51.30852 39408 ft 464 kts 245°
2026-04-30 18:55 50.14047 -51.44872 39409 ft 463 kts 245°
2026-04-30 18:56 50.10470 -51.58857 39401 ft 462 kts 245°
2026-04-30 18:57 50.06888 -51.72774 39399 ft 461 kts 245°
2026-04-30 18:57 50.04505 -51.81984 39397 ft 461 kts 245°
2026-04-30 18:58 50.00919 -51.95883 39393 ft 462 kts 248°
2026-04-30 18:59 49.99259 -52.10714 39390 ft 466 kts 262°
2026-04-30 19:00 49.98536 -52.25726 39632 ft 466 kts 263°
2026-04-30 19:00 49.98305 -52.30750 39784 ft 466 kts 263°
2026-04-30 19:00 49.97819 -52.40778 40159 ft 464 kts 262°
2026-04-30 19:01 49.97307 -52.50798 40373 ft 466 kts 262°
2026-04-30 19:02 49.96509 -52.65873 40373 ft 465 kts 262°
2026-04-30 19:03 49.95426 -52.85824 40371 ft 464 kts 262°
2026-04-30 19:04 49.94309 -53.05768 40367 ft 463 kts 262°
2026-04-30 19:05 49.93159 -53.25680 40360 ft 463 kts 262°
2026-04-30 19:06 49.91979 -53.45508 40344 ft 463 kts 262°
2026-04-30 19:06 49.91069 -53.60412 40348 ft 462 kts 262°
2026-04-30 19:07 49.90521 -53.69247 40337 ft 461 kts 262°
2026-04-30 19:08 49.89423 -53.86610 40331 ft 461 kts 262°
2026-04-30 19:09 49.88465 -54.01438 40321 ft 461 kts 262°
2026-04-30 19:09 49.87814 -54.11340 40323 ft 462 kts 262°
2026-04-30 19:10 49.86489 -54.31115 40313 ft 460 kts 262°
2026-04-30 19:11 49.85473 -54.45942 40296 ft 460 kts 261°
2026-04-30 19:12 49.84788 -54.55771 40302 ft 464 kts 262°
2026-04-30 19:12 49.84078 -54.65798 40294 ft 471 kts 262°
2026-04-30 19:13 49.82618 -54.86060 40289 ft 473 kts 261°
2026-04-30 19:14 49.81875 -54.96217 40286 ft 472 kts 261°
2026-04-30 19:14 49.81132 -55.06258 40288 ft 472 kts 261°
2026-04-30 19:15 49.80374 -55.16364 40275 ft 472 kts 261°
2026-04-30 19:15 49.79223 -55.31506 40277 ft 471 kts 261°
2026-04-30 19:16 49.78449 -55.41522 40277 ft 471 kts 261°
2026-04-30 19:17 49.77268 -55.56609 40277 ft 469 kts 260°
2026-04-30 19:17 49.76072 -55.71633 40275 ft 469 kts 260°
2026-04-30 19:18 49.74859 -55.86611 40276 ft 469 kts 260°
2026-04-30 19:19 49.74035 -55.96655 40275 ft 469 kts 259°
2026-04-30 19:19 49.72791 -56.11613 40271 ft 469 kts 259°
2026-04-30 19:20 49.71947 -56.21618 40263 ft 469 kts 259°
2026-04-30 19:21 49.70668 -56.36591 40265 ft 469 kts 259°
2026-04-30 19:22 49.68931 -56.56579 40267 ft 469 kts 259°
2026-04-30 19:23 49.66271 -56.86402 40269 ft 467 kts 258°
2026-04-30 19:24 49.64913 -57.01302 40267 ft 467 kts 258°
2026-04-30 19:25 49.62607 -57.26097 40271 ft 468 kts 258°
2026-04-30 19:26 49.60726 -57.45910 40255 ft 467 kts 258°
2026-04-30 19:27 49.59293 -57.60755 40256 ft 467 kts 257°
2026-04-30 19:28 49.57839 -57.75603 40257 ft 467 kts 257°
2026-04-30 19:29 49.55879 -57.95323 40264 ft 467 kts 257°
2026-04-30 19:30 49.53877 -58.15111 40270 ft 467 kts 257°
2026-04-30 19:31 49.52015 -58.33198 40258 ft 467 kts 257°
2026-04-30 19:31 49.50467 -58.48024 40268 ft 468 kts 256°
2026-04-30 19:32 49.49425 -58.57897 40259 ft 469 kts 256°
2026-04-30 19:32 49.48371 -58.67801 40257 ft 469 kts 256°
2026-04-30 19:33 49.47316 -58.77634 40256 ft 469 kts 256°
2026-04-30 19:33 49.46241 -58.87566 40250 ft 469 kts 256°
2026-04-30 19:34 49.45169 -58.97395 40251 ft 469 kts 256°
2026-04-30 19:35 49.43530 -59.12259 40247 ft 470 kts 256°
2026-04-30 19:35 49.42431 -59.22127 40246 ft 471 kts 256°
2026-04-30 19:36 49.41314 -59.32067 40246 ft 471 kts 256°
2026-04-30 19:36 49.39634 -59.46885 40246 ft 471 kts 256°
2026-04-30 19:37 49.38498 -59.56803 40241 ft 471 kts 256°
2026-04-30 19:37 49.37354 -59.66712 40253 ft 471 kts 256°
2026-04-30 19:38 49.36210 -59.76540 40241 ft 471 kts 256°
2026-04-30 19:38 49.35046 -59.86464 40241 ft 472 kts 255°
2026-04-30 19:39 49.33881 -59.96326 40241 ft 472 kts 255°
2026-04-30 19:39 49.32701 -60.06236 40235 ft 471 kts 255°
2026-04-30 19:40 49.31514 -60.16124 40235 ft 471 kts 255°
2026-04-30 19:40 49.30318 -60.26021 40253 ft 472 kts 255°
2026-04-30 19:41 49.29121 -60.35845 40232 ft 472 kts 255°
2026-04-30 19:41 49.27907 -60.45736 40231 ft 472 kts 255°
2026-04-30 19:42 49.26684 -60.55633 40227 ft 472 kts 255°
2026-04-30 19:42 49.25461 -60.65455 40229 ft 472 kts 255°
2026-04-30 19:43 49.24222 -60.75330 40223 ft 472 kts 255°
2026-04-30 19:44 49.22346 -60.90143 40226 ft 472 kts 255°
2026-04-30 19:44 49.21086 -61.00005 40217 ft 472 kts 255°
2026-04-30 19:45 49.19825 -61.09808 40214 ft 473 kts 255°
2026-04-30 19:45 49.18547 -61.19669 40214 ft 472 kts 255°
2026-04-30 19:46 49.17259 -61.29541 40209 ft 472 kts 255°
2026-04-30 19:46 49.15972 -61.39333 40208 ft 472 kts 255°
2026-04-30 19:47 49.14667 -61.49189 40207 ft 473 kts 255°
2026-04-30 19:47 49.13353 -61.59049 40200 ft 473 kts 255°
2026-04-30 19:48 49.12040 -61.68834 40195 ft 473 kts 255°
2026-04-30 19:48 49.10711 -61.78671 40192 ft 473 kts 255°
2026-04-30 19:49 49.09375 -61.88499 40194 ft 473 kts 255°
2026-04-30 19:49 49.07353 -62.03240 40186 ft 473 kts 255°
2026-04-30 19:50 49.06002 -62.13001 40188 ft 473 kts 255°
2026-04-30 19:50 49.04637 -62.22802 40181 ft 473 kts 255°
2026-04-30 19:51 49.03261 -62.32619 40178 ft 473 kts 255°
2026-04-30 19:51 49.01878 -62.42424 40178 ft 473 kts 254°
2026-04-30 19:52 49.00486 -62.52226 40173 ft 473 kts 254°
2026-04-30 19:52 48.99096 -62.61951 40174 ft 473 kts 254°
2026-04-30 19:53 48.97689 -62.71730 40166 ft 473 kts 254°
2026-04-30 19:53 48.96273 -62.81507 40158 ft 473 kts 254°
2026-04-30 19:54 48.94849 -62.91278 40158 ft 473 kts 254°
2026-04-30 19:54 48.93416 -63.01049 40155 ft 472 kts 254°
2026-04-30 19:55 48.91976 -63.10809 40150 ft 472 kts 254°
2026-04-30 19:55 48.90537 -63.20500 40166 ft 473 kts 254°
2026-04-30 19:56 48.89081 -63.30242 40146 ft 472 kts 254°
2026-04-30 19:56 48.87616 -63.39986 40142 ft 472 kts 254°
2026-04-30 19:57 48.86155 -63.49646 40136 ft 472 kts 254°
2026-04-30 19:57 48.84674 -63.59370 40134 ft 472 kts 253°
2026-04-30 19:58 48.83186 -63.69090 40130 ft 472 kts 253°
2026-04-30 19:58 48.81689 -63.78804 40131 ft 472 kts 253°
2026-04-30 19:59 48.80195 -63.88443 40125 ft 472 kts 253°
2026-04-30 20:00 48.77921 -64.03005 40115 ft 472 kts 253°
2026-04-30 20:00 48.76401 -64.12665 40109 ft 471 kts 253°
2026-04-30 20:01 48.74111 -64.27109 40096 ft 471 kts 253°
2026-04-30 20:01 48.72570 -64.36760 40098 ft 471 kts 253°
2026-04-30 20:02 48.70248 -64.51198 40091 ft 469 kts 253°
2026-04-30 20:03 48.67914 -64.65591 40094 ft 468 kts 252°
2026-04-30 20:03 48.66350 -64.75157 40074 ft 468 kts 252°
2026-04-30 20:04 48.64786 -64.84677 40071 ft 468 kts 252°
2026-04-30 20:05 48.62414 -64.99016 40066 ft 470 kts 252°
2026-04-30 20:05 48.60011 -65.13412 40069 ft 471 kts 252°
2026-04-30 20:06 48.58406 -65.22968 40050 ft 472 kts 252°
2026-04-30 20:06 48.56777 -65.32603 40056 ft 474 kts 252°
2026-04-30 20:07 48.55141 -65.42232 40033 ft 473 kts 252°
2026-04-30 20:08 48.52666 -65.56695 40038 ft 475 kts 252°
2026-04-30 20:08 48.51010 -65.66300 40023 ft 475 kts 252°
2026-04-30 20:09 48.49339 -65.75948 40020 ft 475 kts 251°
2026-04-30 20:09 48.46816 -65.90414 40005 ft 475 kts 251°
2026-04-30 20:10 48.44275 -66.04866 40018 ft 475 kts 251°
2026-04-30 20:11 48.41743 -66.19148 40000 ft 470 kts 251°
2026-04-30 20:11 48.40047 -66.28654 39990 ft 470 kts 251°
2026-04-30 20:12 48.37486 -66.42909 40000 ft 469 kts 251°
2026-04-30 20:13 48.35788 -66.52299 39989 ft 468 kts 251°
2026-04-30 20:13 48.34070 -66.61753 39995 ft 468 kts 251°
2026-04-30 20:14 48.32346 -66.71191 39972 ft 467 kts 251°
2026-04-30 20:14 48.30613 -66.80626 39969 ft 467 kts 251°
2026-04-30 20:15 48.28883 -66.89998 39968 ft 468 kts 251°
2026-04-30 20:15 48.27138 -66.99408 39955 ft 467 kts 251°
2026-04-30 20:16 48.25398 -67.08741 39947 ft 466 kts 251°
2026-04-30 20:16 48.23643 -67.18103 39941 ft 466 kts 251°
2026-04-30 20:17 48.21876 -67.27483 39930 ft 468 kts 251°
2026-04-30 20:17 48.20399 -67.35289 39929 ft 468 kts 250°
2026-04-30 20:18 48.18323 -67.46209 39919 ft 468 kts 250°
2026-04-30 20:18 48.16820 -67.54074 39902 ft 468 kts 250°
2026-04-30 20:19 48.15034 -67.63384 39895 ft 467 kts 250°
2026-04-30 20:19 48.13231 -67.72728 39883 ft 467 kts 250°
2026-04-30 20:20 48.11420 -67.82073 39867 ft 467 kts 250°
2026-04-30 20:20 48.09604 -67.91391 39868 ft 467 kts 250°
2026-04-30 20:21 48.07790 -68.00658 39878 ft 467 kts 250°
2026-04-30 20:21 48.05959 -68.09970 39868 ft 467 kts 250°
2026-04-30 20:22 48.04122 -68.19263 39864 ft 466 kts 250°
2026-04-30 20:22 48.02278 -68.28553 39862 ft 466 kts 249°
2026-04-30 20:23 48.00421 -68.37858 39858 ft 467 kts 249°
2026-04-30 20:23 47.98556 -68.47159 39859 ft 467 kts 249°
2026-04-30 20:24 47.96696 -68.56395 39858 ft 467 kts 249°
2026-04-30 20:24 47.94818 -68.65676 39860 ft 467 kts 249°
2026-04-30 20:25 47.91988 -68.79575 39878 ft 466 kts 249°
2026-04-30 20:26 47.89151 -68.93418 39859 ft 467 kts 249°
2026-04-30 20:26 47.86283 -69.07310 39853 ft 467 kts 249°
2026-04-30 20:27 47.82446 -69.25750 39854 ft 467 kts 249°
2026-04-30 20:28 47.78574 -69.44188 39843 ft 466 kts 249°
2026-04-30 20:30 47.73728 -69.67134 39835 ft 466 kts 249°
2026-04-30 20:31 47.67954 -69.94700 39829 ft 467 kts 248°
2026-04-30 20:32 47.63063 -70.17696 39826 ft 467 kts 248°
2026-04-30 20:33 47.60120 -70.31412 39824 ft 467 kts 248°
2026-04-30 20:34 47.57161 -70.45117 39827 ft 468 kts 248°
2026-04-30 20:35 47.54156 -70.58922 39827 ft 470 kts 248°
2026-04-30 20:35 47.51131 -70.72737 39818 ft 470 kts 248°
2026-04-30 20:36 47.49117 -70.81886 39794 ft 470 kts 248°
2026-04-30 20:37 47.46069 -70.95657 39803 ft 470 kts 248°
2026-04-30 20:37 47.44025 -71.04839 39782 ft 470 kts 248°
2026-04-30 20:38 47.41973 -71.14021 39782 ft 470 kts 247°
2026-04-30 20:38 47.39915 -71.23190 39750 ft 470 kts 247°
2026-04-30 20:39 47.36808 -71.36955 39757 ft 470 kts 247°
2026-04-30 20:40 47.33699 -71.50638 39751 ft 471 kts 247°
2026-04-30 20:40 47.31605 -71.59808 39755 ft 471 kts 247°
2026-04-30 20:41 47.28463 -71.73491 39747 ft 471 kts 247°
2026-04-30 20:41 47.26352 -71.82634 39754 ft 471 kts 247°
2026-04-30 20:42 47.24234 -71.91770 39749 ft 471 kts 247°
2026-04-30 20:43 47.21055 -72.05413 39754 ft 472 kts 247°
2026-04-30 20:43 47.18916 -72.14543 39757 ft 471 kts 247°
2026-04-30 20:44 47.15697 -72.28213 39756 ft 472 kts 247°
2026-04-30 20:45 47.11385 -72.46390 39781 ft 472 kts 246°
2026-04-30 20:45 47.09213 -72.55491 39771 ft 472 kts 246°
2026-04-30 20:46 47.04851 -72.73651 39776 ft 471 kts 246°
2026-04-30 20:47 47.01578 -72.87182 39787 ft 471 kts 246°
2026-04-30 20:48 46.98273 -73.00760 39790 ft 471 kts 246°
2026-04-30 20:48 46.96075 -73.09748 39795 ft 471 kts 246°
2026-04-30 20:49 46.93856 -73.18780 39799 ft 471 kts 246°
2026-04-30 20:50 46.90530 -73.32253 39802 ft 470 kts 246°
2026-04-30 20:50 46.88298 -73.41254 39805 ft 470 kts 246°
2026-04-30 20:51 46.86056 -73.50256 39813 ft 470 kts 246°
2026-04-30 20:51 46.82685 -73.63723 39814 ft 471 kts 246°
2026-04-30 20:52 46.80443 -73.72638 39817 ft 469 kts 246°
2026-04-30 20:53 46.77050 -73.86058 39830 ft 469 kts 246°
2026-04-30 20:53 46.74782 -73.94987 39829 ft 469 kts 246°
2026-04-30 20:54 46.71383 -74.08302 39840 ft 469 kts 246°
2026-04-30 20:55 46.67948 -74.21681 39841 ft 468 kts 246°
2026-04-30 20:55 46.65660 -74.30551 39849 ft 467 kts 246°
2026-04-30 20:56 46.62231 -74.43780 39855 ft 467 kts 245°
2026-04-30 20:57 46.58764 -74.57081 39866 ft 468 kts 245°
2026-04-30 20:57 46.56460 -74.65874 39868 ft 468 kts 245°
2026-04-30 20:58 46.52966 -74.79151 39865 ft 468 kts 245°
2026-04-30 20:58 46.50632 -74.87975 39886 ft 467 kts 245°
2026-04-30 20:59 46.47137 -75.01131 39875 ft 468 kts 245°
2026-04-30 21:00 46.42422 -75.18760 39881 ft 468 kts 245°
2026-04-30 21:01 46.38892 -75.31878 39880 ft 467 kts 245°
2026-04-30 21:02 46.35327 -75.45049 39896 ft 468 kts 245°
2026-04-30 21:02 46.32942 -75.53824 39884 ft 468 kts 245°
2026-04-30 21:03 46.30562 -75.62544 39882 ft 468 kts 245°
2026-04-30 21:03 46.28162 -75.71306 39881 ft 468 kts 245°
2026-04-30 21:04 46.25759 -75.80047 39881 ft 468 kts 245°
2026-04-30 21:04 46.22141 -75.93144 39888 ft 468 kts 245°
2026-04-30 21:05 46.20129 -76.00400 39883 ft 469 kts 245°
2026-04-30 21:05 46.17700 -76.09129 39883 ft 469 kts 245°
2026-04-30 21:06 46.14861 -76.19289 39884 ft 469 kts 245°
2026-04-30 21:06 46.12814 -76.26593 39882 ft 469 kts 245°
2026-04-30 21:07 46.10380 -76.35244 39878 ft 469 kts 245°
2026-04-30 21:07 46.07918 -76.43967 39882 ft 469 kts 245°
2026-04-30 21:08 46.05447 -76.52690 39881 ft 470 kts 245°
2026-04-30 21:08 46.02983 -76.61356 39886 ft 470 kts 245°
2026-04-30 21:09 46.00495 -76.70074 39890 ft 470 kts 245°
2026-04-30 21:09 45.98005 -76.78770 39891 ft 470 kts 244°
2026-04-30 21:10 45.95524 -76.87405 39900 ft 470 kts 244°
2026-04-30 21:10 45.93020 -76.96089 39891 ft 470 kts 244°
2026-04-30 21:11 45.90506 -77.04774 39892 ft 470 kts 244°
2026-04-30 21:11 45.87989 -77.13440 39890 ft 470 kts 244°
2026-04-30 21:12 45.85465 -77.22100 39890 ft 470 kts 244°
2026-04-30 21:12 45.82946 -77.30713 39890 ft 470 kts 244°
2026-04-30 21:13 45.80404 -77.39376 39892 ft 470 kts 244°
2026-04-30 21:13 45.77858 -77.48022 39898 ft 471 kts 244°
2026-04-30 21:14 45.75305 -77.56662 39904 ft 471 kts 244°
2026-04-30 21:14 45.72744 -77.65297 39910 ft 471 kts 244°
2026-04-30 21:15 45.70193 -77.73870 39918 ft 471 kts 244°
2026-04-30 21:15 45.67621 -77.82484 39917 ft 470 kts 244°
2026-04-30 21:16 45.65036 -77.91112 39919 ft 470 kts 244°
2026-04-30 21:16 45.62469 -77.99649 39919 ft 470 kts 244°
2026-04-30 21:17 45.59880 -78.08230 39920 ft 470 kts 244°
2026-04-30 21:17 45.57284 -78.16809 39920 ft 470 kts 244°
2026-04-30 21:18 45.54682 -78.25377 39926 ft 470 kts 244°
2026-04-30 21:18 45.52075 -78.33928 39920 ft 469 kts 244°
2026-04-30 21:19 45.49485 -78.42398 39925 ft 468 kts 244°
2026-04-30 21:19 45.46872 -78.50916 39924 ft 468 kts 244°
2026-04-30 21:20 45.44255 -78.59418 39925 ft 468 kts 244°
2026-04-30 21:20 45.41631 -78.67913 39928 ft 468 kts 244°
2026-04-30 21:21 45.39018 -78.76344 39928 ft 468 kts 244°
2026-04-30 21:22 45.35068 -78.89040 39929 ft 467 kts 244°
2026-04-30 21:23 45.29789 -79.05911 39935 ft 467 kts 244°
2026-04-30 21:23 45.25824 -79.18504 39936 ft 468 kts 244°
2026-04-30 21:24 45.23159 -79.26938 39941 ft 468 kts 244°
2026-04-30 21:24 45.20486 -79.35367 39949 ft 468 kts 244°
2026-04-30 21:25 45.16468 -79.47987 39951 ft 468 kts 244°
2026-04-30 21:26 45.12438 -79.60584 39967 ft 468 kts 244°
2026-04-30 21:27 45.08240 -79.73006 39970 ft 467 kts 237°
2026-04-30 21:27 45.04604 -79.80617 39978 ft 467 kts 234°
2026-04-30 21:28 44.99015 -79.91940 39991 ft 468 kts 234°
2026-04-30 21:29 44.93440 -80.03183 39986 ft 468 kts 234°
2026-04-30 21:30 44.84078 -80.21968 40000 ft 468 kts 234°
2026-04-30 21:31 44.74703 -80.40656 40001 ft 467 kts 234°
2026-04-30 21:32 44.69066 -80.51835 40007 ft 467 kts 234°
2026-04-30 21:32 44.65296 -80.59288 40000 ft 467 kts 234°
2026-04-30 21:33 44.59631 -80.70448 39989 ft 467 kts 234°
2026-04-30 21:34 44.55853 -80.77869 39996 ft 467 kts 234°
2026-04-30 21:34 44.50205 -80.88926 39995 ft 466 kts 234°
2026-04-30 21:35 44.46423 -80.96307 39996 ft 467 kts 234°
2026-04-30 21:35 44.42628 -81.03694 39995 ft 467 kts 234°
2026-04-30 21:36 44.38825 -81.11079 40000 ft 467 kts 234°
2026-04-30 21:37 44.31221 -81.25786 40007 ft 467 kts 234°
2026-04-30 21:37 44.27407 -81.33135 40005 ft 467 kts 234°
2026-04-30 21:38 44.23589 -81.40473 40012 ft 467 kts 234°
2026-04-30 21:38 44.19790 -81.47756 40011 ft 467 kts 234°
2026-04-30 21:39 44.15957 -81.55088 40016 ft 467 kts 234°
2026-04-30 21:39 44.12120 -81.62406 40015 ft 467 kts 234°
2026-04-30 21:40 44.08311 -81.69653 40021 ft 466 kts 234°
2026-04-30 21:40 44.04469 -81.76945 40020 ft 465 kts 234°
2026-04-30 21:41 44.00658 -81.84160 40020 ft 465 kts 234°
2026-04-30 21:41 43.96826 -81.91397 40019 ft 465 kts 234°
2026-04-30 21:42 43.92976 -81.98650 40024 ft 465 kts 234°
2026-04-30 21:42 43.89157 -82.05826 40029 ft 464 kts 234°
2026-04-30 21:43 43.85943 -82.11853 40029 ft 464 kts 234°
2026-04-30 21:43 43.81475 -82.20209 40028 ft 464 kts 234°
2026-04-30 21:44 43.77620 -82.27400 40028 ft 464 kts 234°
2026-04-30 21:44 43.73792 -82.34523 40028 ft 463 kts 234°
2026-04-30 21:45 43.69940 -82.41675 40031 ft 463 kts 234°
2026-04-30 21:45 43.66081 -82.48820 40031 ft 463 kts 234°
2026-04-30 21:46 43.62248 -82.55901 40030 ft 463 kts 234°
2026-04-30 21:46 43.58375 -82.63037 40023 ft 463 kts 234°
2026-04-30 21:47 43.54510 -82.70143 40031 ft 462 kts 234°
2026-04-30 21:47 43.50671 -82.77183 40021 ft 462 kts 234°
2026-04-30 21:48 43.46801 -82.84263 40021 ft 462 kts 234°
2026-04-30 21:48 43.42949 -82.91294 40007 ft 462 kts 234°
2026-04-30 21:49 43.39069 -82.98358 40005 ft 462 kts 234°
2026-04-30 21:49 43.35197 -83.05391 40005 ft 457 kts 234°
2026-04-30 21:50 43.33307 -83.08817 40000 ft 442 kts 234°
2026-04-30 21:50 43.31481 -83.12128 40000 ft 427 kts 234°
2026-04-30 21:50 43.29711 -83.15335 39998 ft 414 kts 234°
2026-04-30 21:50 43.27987 -83.18462 40006 ft 409 kts 234°
2026-04-30 21:51 43.24579 -83.24628 40006 ft 408 kts 234°
2026-04-30 21:51 43.21143 -83.30822 40007 ft 408 kts 234°
2026-04-30 21:52 43.17705 -83.36999 40008 ft 407 kts 234°
2026-04-30 21:52 43.14843 -83.42133 40004 ft 407 kts 234°
2026-04-30 21:53 43.11402 -83.48292 40013 ft 407 kts 234°
2026-04-30 21:53 43.07959 -83.54442 40017 ft 407 kts 234°
2026-04-30 21:54 43.04504 -83.60600 40001 ft 407 kts 234°
2026-04-30 21:54 43.01076 -83.66698 40016 ft 406 kts 234°
2026-04-30 21:55 42.97833 -83.72987 40014 ft 403 kts 244°
2026-04-30 21:55 42.96122 -83.80181 40022 ft 398 kts 261°
2026-04-30 21:56 42.95351 -83.87662 40018 ft 397 kts 262°
2026-04-30 21:56 42.94634 -83.95107 40009 ft 397 kts 262°
2026-04-30 21:57 42.93909 -84.02588 40009 ft 397 kts 262°
2026-04-30 21:57 42.93178 -84.10058 40008 ft 397 kts 262°
2026-04-30 21:58 42.92447 -84.17478 40008 ft 397 kts 262°
2026-04-30 21:58 42.91707 -84.24941 40009 ft 397 kts 262°
2026-04-30 21:59 42.90960 -84.32417 40014 ft 397 kts 262°
2026-04-30 22:00 42.89832 -84.43616 40023 ft 397 kts 262°
2026-04-30 22:00 42.88693 -84.54814 40016 ft 397 kts 262°
2026-04-30 22:01 42.87936 -84.62248 40025 ft 395 kts 262°
2026-04-30 22:01 42.87173 -84.69628 40017 ft 395 kts 262°
2026-04-30 22:02 42.86401 -84.77053 40019 ft 394 kts 262°
2026-04-30 22:02 42.85628 -84.84450 40025 ft 394 kts 262°
2026-04-30 22:03 42.84851 -84.91845 40026 ft 394 kts 262°
2026-04-30 22:03 42.84076 -84.99195 40026 ft 394 kts 262°
2026-04-30 22:04 42.83285 -85.06591 40025 ft 394 kts 262°
2026-04-30 22:05 42.82092 -85.17686 40037 ft 394 kts 262°
2026-04-30 22:05 42.81291 -85.25080 40040 ft 394 kts 262°
2026-04-30 22:06 42.80490 -85.32433 40035 ft 394 kts 262°
2026-04-30 22:06 42.79274 -85.43512 40036 ft 394 kts 262°
2026-04-30 22:07 42.78360 -85.50886 40038 ft 395 kts 258°
2026-04-30 22:07 42.77088 -85.58143 40040 ft 396 kts 257°
2026-04-30 22:08 42.75775 -85.65430 40041 ft 396 kts 257°
2026-04-30 22:08 42.74461 -85.72721 40048 ft 396 kts 257°
2026-04-30 22:09 42.73155 -85.79963 40063 ft 396 kts 257°
2026-04-30 22:09 42.71828 -85.87255 40063 ft 396 kts 257°
2026-04-30 22:10 42.70501 -85.94533 40063 ft 396 kts 257°
2026-04-30 22:10 42.69168 -86.01817 40065 ft 396 kts 257°
2026-04-30 22:11 42.67928 -86.08609 40068 ft 396 kts 257°
2026-04-30 22:12 42.66692 -86.15298 40066 ft 396 kts 257°
2026-04-30 22:12 42.65346 -86.22557 40062 ft 396 kts 257°
2026-04-30 22:13 42.64000 -86.29819 40073 ft 396 kts 257°
2026-04-30 22:13 42.62651 -86.37047 39688 ft 394 kts 257°
2026-04-30 22:13 42.61972 -86.40673 39046 ft 399 kts 257°
2026-04-30 22:14 42.61282 -86.44346 38411 ft 401 kts 257°
2026-04-30 22:14 42.60594 -86.48006 37809 ft 400 kts 257°
2026-04-30 22:14 42.59904 -86.51661 37275 ft 398 kts 257°
2026-04-30 22:14 42.59220 -86.55282 36732 ft 396 kts 257°
2026-04-30 22:15 42.58536 -86.58897 36171 ft 394 kts 257°
2026-04-30 22:15 42.57860 -86.62462 35605 ft 393 kts 257°
2026-04-30 22:15 42.57178 -86.66048 34967 ft 393 kts 256°
2026-04-30 22:15 42.56494 -86.69641 34311 ft 393 kts 256°
2026-04-30 22:16 42.55714 -86.73203 33638 ft 394 kts 253°
2026-04-30 22:16 42.54798 -86.76692 32935 ft 392 kts 252°
2026-04-30 22:17 42.51994 -86.86997 31155 ft 380 kts 252°
2026-04-30 22:17 42.51086 -86.90328 30701 ft 373 kts 253°
2026-04-30 22:17 42.49323 -86.96809 29748 ft 360 kts 253°
2026-04-30 22:18 42.48462 -86.99974 29293 ft 357 kts 253°
2026-04-30 22:18 42.46762 -87.06217 28402 ft 354 kts 253°
2026-04-30 22:19 42.45065 -87.12432 27503 ft 350 kts 253°
2026-04-30 22:19 42.44221 -87.15520 27065 ft 348 kts 253°
2026-04-30 22:19 42.42538 -87.21643 26172 ft 345 kts 253°
2026-04-30 22:20 42.41703 -87.24673 25707 ft 343 kts 253°
2026-04-30 22:20 42.40044 -87.30696 24822 ft 340 kts 252°
2026-04-30 22:20 42.39221 -87.33686 24374 ft 338 kts 252°
2026-04-30 22:21 42.38400 -87.36662 23926 ft 337 kts 252°
2026-04-30 22:21 42.37578 -87.39629 23430 ft 336 kts 252°
2026-04-30 22:21 42.36764 -87.42565 22998 ft 331 kts 252°
2026-04-30 22:21 42.35958 -87.45482 22558 ft 331 kts 252°
2026-04-30 22:22 42.35151 -87.48398 22114 ft 331 kts 252°
2026-04-30 22:22 42.34293 -87.51239 21691 ft 330 kts 247°
2026-04-30 22:22 42.33038 -87.53851 21229 ft 334 kts 233°
2026-04-30 22:22 42.31334 -87.56010 20773 ft 338 kts 225°
2026-04-30 22:23 42.29488 -87.57979 20273 ft 335 kts 223°
2026-04-30 22:23 42.27690 -87.59844 19202 ft 319 kts 223°
2026-04-30 22:23 42.25938 -87.61680 17474 ft 320 kts 224°
2026-04-30 22:23 42.24168 -87.63535 15610 ft 323 kts 223°
2026-04-30 22:24 42.22400 -87.65376 13960 ft 318 kts 223°
2026-04-30 22:24 42.20666 -87.67181 12210 ft 312 kts 222°
2026-04-30 22:24 42.18981 -87.68943 10635 ft 309 kts 221°
2026-04-30 22:24 42.17301 -87.70708 9650 ft 301 kts 221°
2026-04-30 22:25 42.15675 -87.72417 9144 ft 292 kts 219°
2026-04-30 22:25 42.14099 -87.74065 8870 ft 281 kts 219°
2026-04-30 22:25 42.12583 -87.75652 8667 ft 271 kts 219°
2026-04-30 22:25 42.11220 -87.77316 8447 ft 259 kts 233°
2026-04-30 22:26 42.10551 -87.81743 8004 ft 246 kts 283°
2026-04-30 22:26 42.11400 -87.83725 7742 ft 248 kts 309°
2026-04-30 22:26 42.12854 -87.84977 7444 ft 254 kts 336°
2026-04-30 22:27 42.14618 -87.85217 7135 ft 260 kts
2026-04-30 22:27 42.16319 -87.84365 6838 ft 265 kts 30°
2026-04-30 22:27 42.18190 -87.80214 6208 ft 267 kts 84°
2026-04-30 22:28 42.17122 -87.75608 6023 ft 260 kts 123°
2026-04-30 22:28 42.16137 -87.73555 6027 ft 261 kts 125°
2026-04-30 22:29 42.12450 -87.68483 6024 ft 250 kts 166°
2026-04-30 22:29 42.10767 -87.68369 6027 ft 240 kts 195°
2026-04-30 22:30 42.08275 -87.75383 6028 ft 231 kts 270°
2026-04-30 22:31 42.08431 -87.81867 6024 ft 231 kts 269°
2026-04-30 22:32 42.08534 -87.88348 6024 ft 231 kts 269°
2026-04-30 22:32 42.08603 -87.92665 6019 ft 230 kts 272°
2026-04-30 22:33 42.07911 -87.98920 6024 ft 230 kts 241°
2026-04-30 22:33 42.06999 -88.02941 5994 ft 232 kts 271°
2026-04-30 22:34 42.07679 -88.09400 5083 ft 228 kts 276°
2026-04-30 22:35 42.08132 -88.13446 4666 ft 204 kts 276°
2026-04-30 22:36 42.07292 -88.19727 3034 ft 173 kts 214°
2026-04-30 22:36 42.06124 -88.20089 2622 ft 179 kts 175°
2026-04-30 22:37 42.02661 -88.18649 2463 ft 170 kts 165°
2026-04-30 22:37 42.01534 -88.18168 2465 ft 170 kts 165°
2026-04-30 22:37 41.99275 -88.17222 2463 ft 169 kts 165°
2026-04-30 22:38 41.97241 -88.15624 2461 ft 175 kts 131°
2026-04-30 22:38 41.96633 -88.12482 2496 ft 182 kts 89°
2026-04-30 22:39 41.96637 -88.10780 2499 ft 183 kts 89°
2026-04-30 22:39 41.96567 -88.05718 2499 ft 177 kts 90°
2026-04-30 22:40 41.96568 -88.01334 1958 ft 174 kts 89°
2026-04-30 22:41 41.96557 -87.96556 1182 ft 162 kts 88°
2026-04-30 22:41 41.96569 -87.93803 803 ft 135 kts 88°
2026-04-30 22:42 41.96580 -87.91069 673 ft 18 kts 85°
2026-04-30 22:43 41.96652 -87.90770 672 ft 11 kts 61°
2026-04-30 22:43 41.96731 -87.90572 672 ft 13 kts 71°
2026-04-30 22:44 41.96805 -87.90512 671 ft 8 kts 338°
2026-04-30 22:45 41.97024 -87.90712 672 ft 4 kts 46°
2026-04-30 22:45 41.97041 -87.90508 672 ft 18 kts 89°
2026-04-30 22:46 41.97042 -87.90077 673 ft 25 kts 89°
2026-04-30 22:47 41.97078 -87.89444 673 ft 7 kts 15°
2026-04-30 22:47 41.97288 -87.89434 672 ft 16 kts
2026-04-30 22:48 41.97373 -87.89336 673 ft 10 kts 13°
2026-04-30 22:49 41.97500 -87.89330 673 ft 1 kts 24°
2026-04-30 22:49 41.97508 -87.89234 673 ft 0 kts 88°
2026-04-30 22:50 41.97508 -87.89221 673 ft 0 kts 88°
2026-04-30 22:54 41.96602 -88.09026 2491 ft 182 kts 91°
2026-04-30 22:55 41.96569 -87.93728 792 ft 134 kts 88°
2026-04-30 22:55 41.96568 -87.93923 821 ft 135 kts 88°
2026-04-30 22:56 41.96571 -87.92650 674 ft 121 kts 89°
2026-04-30 22:57 41.96570 -87.92541 675 ft 117 kts 90°
2026-04-30 22:57 41.96571 -87.92437 674 ft 112 kts 89°